This is the latest recevied weather packets stored in our database for station/object W0AKY-13. If no packets are shown the sender has not sent any weather packets the latest 10 day(s).
| Time | Temp. | Humidity | Pressure | Rain* | Wind** | Luminosity | Snow |
|---|---|---|---|---|---|---|---|
| 1788386782 | 37.78° C | 43% | 1012.2 hPa | 0 mm | - | 241 W/m² | - |
| 1788386481 | 37.78° C | 43% | 1012.3 hPa | 0 mm | - | 254 W/m² | - |
| 1788386178 | 37.78° C | 43% | 1012.3 hPa | 0 mm | - | 262 W/m² | - |
| 1788385873 | 37.78° C | 43% | 1012.4 hPa | 0 mm | - | 273 W/m² | - |
| 1788385266 | 38.33° C | 41% | 1012.4 hPa | 0 mm | - | 297 W/m² | - |
| 1788384963 | 37.78° C | 42% | 1012.3 hPa | 0 mm | - | 310 W/m² | - |
| 1788384661 | 37.78° C | 42% | 1012.3 hPa | 0 mm | - | 320 W/m² | - |
| 1788384357 | 37.78° C | 43% | 1012.2 hPa | 0 mm | - | 329 W/m² | - |
| 1788384053 | 37.78° C | 43% | 1012.4 hPa | 0 mm | - | 341 W/m² | - |
| 1788383750 | 37.78° C | 43% | 1012.3 hPa | 0 mm | - | 348 W/m² | - |
| 1788383450 | 37.78° C | 42% | 1012.5 hPa | 0 mm | - | 362 W/m² | - |
| 1788383144 | 37.78° C | 42% | 1012.4 hPa | 0 mm | - | 370 W/m² | - |
| 1788382844 | 37.78° C | 43% | 1012.7 hPa | 0 mm | - | 384 W/m² | - |
| 1788382568 | 37.78° C | 43% | 1012.7 hPa | 0 mm | - | 392 W/m² | - |
| 1788382239 | 37.78° C | 45% | 1012.6 hPa | 0 mm | - | 394 W/m² | - |
| 1788381939 | 37.78° C | 41% | 1012.6 hPa | 0 mm | - | 412 W/m² | - |
| 1788381633 | 38.33° C | 41% | 1012.6 hPa | 0 mm | - | 423 W/m² | - |
| 1788381329 | 37.78° C | 41% | 1012.8 hPa | 0 mm | - | 433 W/m² | - |
| 1788381028 | 37.78° C | 40% | 1012.7 hPa | 0 mm | - | 440 W/m² | - |
| 1788380724 | 37.78° C | 41% | 1012.7 hPa | 0 mm | - | 453 W/m² | - |
| 1788380420 | 37.78° C | 40% | 1012.7 hPa | 0 mm | - | 462 W/m² | - |
| 1788380116 | 37.78° C | 43% | 1013 hPa | 0 mm | - | 468 W/m² | - |
| 1788379815 | 37.78° C | 44% | 1013.1 hPa | 0 mm | - | 479 W/m² | - |
| 1788379510 | 37.78° C | 42% | 1012.8 hPa | 0 mm | - | 483 W/m² | - |
| 1788379219 | 37.78° C | 42% | 1012.8 hPa | 0 mm | - | 493 W/m² | - |
* Rain latest hour (hover to see other rain measurements)
** Current wind speed in m/s (hover to see current wind gust speed)